Weather History for Ukiah, CA

Change the Weather History Date:

Saturday, December 14, 2013

  Actual Average Record
Temperature  
Mean Temperature 46 °F 45 °F  
Max Temperature 64 °F 55 °F 76 °F (1958)
Min Temperature 27 °F 36 °F 16 °F (1940)
Degree Days  
Heating Degree Days 19 20  
Month to date heating degree days 343 269  
Since 1 July heating degree days 868 892  
Cooling Degree Days 0 0  
Month to date cooling degree days 0 0  
Year to date cooling degree days 974 835  
Moisture  
Dew Point 33 °F    
Average Humidity 66    
Maximum Humidity 92    
Minimum Humidity 39    
Precipitation  
Precipitation 0.00 in 0.22 in 4.60 in (2002)
Month to date precipitation 0.49 2.59  
Year to date precipitation 7.50 32.99  
Since 1 July precipitation 1.92 9.61  
Snow  
Snow 0.00 in - - ()
Month to date snowfall 0.0  
Since 1 July snowfall 0.0  
Snow Depth 0.00 in    
Sea Level Pressure  
Sea Level Pressure 30.37 in    
Wind  
Wind Speed 0 mph (WNW)    
Max Wind Speed 6 mph    
Max Gust Speed 7 mph    
Visibility 9 miles    
Events      
T = Trace of Precipitation, MM = Missing Value Source: NWS Daily Summary

Daily Weather History Graph

Daily Weather History Graph

Search for Another Location

Airport:

Trip Planner

Search our weather history database for the weather conditions in past years. The results will help you decide how hot, cold, wet, or windy it might be!

Date:

Astronomy

Dec. 14, 2013 Rise Set
Actual Time 7:24 AM PST 4:50 PM PST
Civil Twilight 6:54 AM PST 5:20 PM PST
Nautical Twilight 6:20 AM PST 5:54 PM PST
Astronomical Twilight 5:48 AM PST 6:27 PM PST
Moon 3:15 PM PST (12/14) 4:51 AM PST (12/14)
Length of Visible Light 10h 26m
Length of Day
9h 26m
Waxing Gibbous, 94% of the Moon is Illuminated
Dec 14
Waxing Gibbous
Dec 17
Full
Dec 25
Last Quarter
Jan 1
New
Jan 7
First Quarter

Hourly Weather History & Observations

Time (PST) Temp. Windchill Dew Point Humidity Pressure Visibility Wind Dir Wind Speed Gust Speed Precip Events Conditions
12:56 AM 30.0 °F - 28.0 °F 92% 30.35 in 7.0 mi Calm Calm - N/A   Clear
1:56 AM 33.1 °F - 30.9 °F 92% 30.36 in 4.0 mi Calm Calm - N/A   Clear
2:56 AM 32.0 °F - 30.0 °F 92% 30.36 in 7.0 mi Calm Calm - N/A   Clear
3:56 AM 30.9 °F - 28.9 °F 92% 30.37 in 6.0 mi Calm Calm - N/A   Clear
4:56 AM 30.0 °F - 27.0 °F 88% 30.37 in 9.0 mi Calm Calm - N/A   Clear
5:56 AM 28.9 °F - 27.0 °F 92% 30.38 in 9.0 mi Calm Calm - N/A   Clear
6:56 AM 28.9 °F - 25.0 °F 85% 30.38 in 9.0 mi Calm Calm - N/A   Clear
7:56 AM 28.9 °F - 27.0 °F 92% 30.40 in 8.0 mi Calm Calm - N/A   Clear
8:56 AM 36.0 °F - 32.0 °F 86% 30.42 in 9.0 mi Calm Calm - N/A   Clear
9:56 AM 41.0 °F - 34.0 °F 76% 30.43 in 10.0 mi Calm Calm - N/A   Clear
10:56 AM 46.9 °F - 36.0 °F 66% 30.41 in 10.0 mi Calm Calm - N/A   Clear
11:56 AM 53.1 °F - 35.1 °F 50% 30.38 in 10.0 mi Calm Calm - N/A   Clear
12:56 PM 59.0 °F - 35.1 °F 41% 30.34 in 10.0 mi Calm Calm - N/A   Clear
1:56 PM 61.0 °F - 36.0 °F 39% 30.31 in 10.0 mi Calm Calm - N/A   Clear
2:56 PM 63.0 °F - 37.0 °F 38% 30.31 in 10.0 mi Calm Calm - N/A   Clear
3:56 PM 55.9 °F - 37.9 °F 51% 30.32 in 10.0 mi West 4.6 mph - N/A   Clear
4:56 PM 52.0 °F - 37.0 °F 57% 30.32 in 10.0 mi Calm Calm - N/A   Clear
5:56 PM 48.9 °F - 37.0 °F 64% 30.34 in 9.0 mi Calm Calm - N/A   Clear
6:56 PM 43.0 °F - 36.0 °F 76% 30.35 in 8.0 mi Calm Calm - N/A   Clear
7:56 PM 42.1 °F - 35.1 °F 76% 30.37 in 10.0 mi Calm Calm - N/A   Clear
8:56 PM 41.0 °F - 34.0 °F 76% 30.39 in 10.0 mi Calm Calm - N/A   Clear
9:56 PM 36.0 °F - 33.1 °F 89% 30.39 in 10.0 mi Calm Calm - N/A   Clear
10:56 PM 36.0 °F 33.3 °F 32.0 °F 86% 30.39 in 8.0 mi NW 3.5 mph - N/A   Clear
11:56 PM 34.0 °F - 30.9 °F 89% 30.40 in 7.0 mi Calm Calm - N/A   Clear